Regional Weather Roundup
Issued by NWS New Orleans/Baton Rouge, LA

Home | Current Version | Previous Version | Graphics & Text | Print | Product List | Glossary On
Versions: 1 2 3 4 5 6 7 8 9 10 11 12 13 14 15 16 17 18 19 20 21 22 23 24 25 26 27 28 29 30 31 32 33 34 35 36 37 38 39 40 41 42 43 44 45 46 47 48 49 50
497
ASUS44 KLIX 171907
RWRLIX
NEW ORLEANS REGIONAL WEATHER ROUNDUP
NATIONAL WEATHER SERVICE NEW ORLEANS LA
200 PM CDT FRI APR 17 2015

NOTE: "FAIR" INDICATES FEW OR NO CLOUDS BELOW 12,000 FEET WITH NO
      SIGNIFICANT WEATHER AND/OR OBSTRUCTIONS TO VISIBILITY.
      SKY/WX - SKY CONDITION AND SIGNIFICANT WEATHER.
      TMP - AIR TEMPERATURE.     DP    - DEWPOINT TEMPERATURE.
      RH  - RELATIVE HUMIDITY.   PRES  - PRESSURE.
      HI  - HEAT INDEX.          WCI   - WIND CHILL INDEX.

*  THESE STATIONS ARE NOT NWS OR FAA STATIONS AND ARE NOT UNDER
   NWS QUALITY CONTROL.

LAZ038-040-048-061>063-065>067-069-172000-
SOUTHEAST LOUISIANA

CITY           SKY/WX    TMP DP  RH WIND       PRES   REMARKS
N.O. AUDUBON     N/A     84  77  79 MISG        N/A
N.O. INTL ARPT PTSUNNY   80  69  69 SW9       29.96F
N.O. LAKEFRONT MOSUNNY   80  71  74 NW7       29.97F
SLIDELL        MOSUNNY   81  72  74 VRB7      29.96F
BATON ROUGE    PTSUNNY   81  69  67 SW10      29.96F
BOOTHVILLE     PTSUNNY   77  72  84 SW10      29.96F
BELLE CHASSE   PTSUNNY   78  70  76 SW8       29.95F
BOGALUSA*        N/A     82  68  63 W3        29.98F
GALLIANO*      MOCLDY    81  69  66 MISG      29.96F
NEW ROADS*     CLOUDY    79  70  73 S7        29.97F
GONZALES*      MOCLDY    81  69  66 W3        29.96F
HAMMOND*       MOSUNNY   82  66  57 S7        29.97F
HOUMA*         CLOUDY    77  72  83 W6        29.97F
PORT FOURCHON* PTCLDY    79  70  73 VRB7      29.98F

$$

MSZ070-080>082-172000-
SOUTHERN MISSISSIPPI

CITY           SKY/WX    TMP DP  RH WIND       PRES   REMARKS
MCCOMB         PTSUNNY   79  68  69 S5        29.96F
GULFPORT       CLOUDY    79  70  74 SW12G17   29.95F
BILOXI         PTSUNNY   78  74  86 W14G21    29.95F
PASCAGOULA     CLOUDY    78  71  79 SW9G17    29.95F
STENNIS ARPT*  PTSUNNY   81  66  61 MISG      29.96F

$$

COASTAL OBSERVATIONS
LAKE AND NEARSHORE STATIONS

STATION/POSITION TIME  TEMP    WIND        PRES    WAVE
                       AIR SEA DIR/SP/G            HT/PER
                 (UTC) (F)     (DEG/KT/KT) (MB)    (FT/S)
PASCAGOULA       1800   75     220/ 12/ 17 1014.6
WAVELAND YACHT   1800   75 73  220/  7/ 14 1015.3
GRAND ISLE       1800   76 75  150/  5/  9 1014.7
SOUTHWEST PASS   1800   74 63  170/ 12/ 15 1014.9
NEW CANAL        1800   75     210/  3/  4 1015.8
SHELL BEACH      1800   77 75  200/ 12/ 16 1014.7

OFFSHORE STATIONS

STATION/POSITION TIME  TEMP    WIND        PRES    WAVE
                       AIR SEA DIR/SP/G            HT/PER
                 (UTC) (F)     (DEG/KT/KT) (MB)    (FT/S)
64 S DAUPHIN ISL 1850   75 75  210/ 16/ 17 1014.4    5/ 5

$$




USA.gov is the U.S. government's official web portal to all federal, state and local government web resources and services.